Location: Unnamed
(51.8936°N, 11.0665°E)
Time: 04:59:47
(UTC+02:00)

NO-84 - Pass Details

Date: 02 October 2021
Orbit: 286 x 358 km, 55.0° (Epoch: 13 October)

Event Time Altitude Azimuth Distance (km) Brightness Sun altitude
Rises 20:03:03 0° 211° (SSW) 1,995 ? -12.0°
Reaches altitude 10° 20:05:11 10° 194° (SSW) 1,191 ? -12.3°
Maximum altitude 20:07:18 22° 141° (SE) 762 ? -12.6°
Enters shadow 20:07:23 22° 138° (SE) 763 ? -12.6°
